Regional Weather Roundup
Issued by NWS

Home | Current Version | Previous Version | Text Only | Print | Product List | Glossary On
Versions: 1 2 3 4 5 6 7 8 9 10 11 12 13 14 15 16 17 18 19 20 21 22 23 24 25 26 27 28 29 30 31 32 33 34 35 36 37 38 39 40 41 42 43 44 45 46 47 48 49 50
000
ASUS44 KEWX 290103
RWRTX
SOUTH TEXAS REGIONAL WEATHER ROUNDUP
NATIONAL WEATHER SERVICE AUSTIN/SAN ANTONIO TX
800 PM CDT WED JUN 28 2017

NOTE: "FAIR" INDICATED FEW OR NO CLOUDS BELOW 12,000 FEET WITH NO
SIGNIFICANT WEATHER AND/OR OBSTRUCTIONS TO VISIBILITY.

* - THESE STATIONS ARE NOT NWS OR FAA STATIONS...AND ARE NOT SUBJECT
    TO NWS AND FAA QUALITY CONTROL.

TXZ171-172-183>190-290200-
TEXAS HILL COUNTRY AND EDWARDS PLATEAU

CITY           SKY/WX    TMP DP  RH WIND       PRES   REMARKS
JUNCTION       CLEAR     89  63  41 SE10      29.86S HX  90
*LLANO         CLEAR     90  68  48 SE10      29.88S HX  93
BURNET         CLEAR     86  66  51 SE6       29.88S
*HORSESHOE BAY CLEAR     87  67  51 MISG      29.86S HX  90
*KERRVILLE     CLEAR     85  68  56 SE9       29.88S
*FREDERICKSBRG CLEAR     84  63  48 S6        29.89R
*ROCKSPRINGS   CLEAR     86  64  48 S12       29.92S
*BOERNE STAGE  CLEAR     82  64  54 SE5       29.88S
*CASTROVILLE   CLEAR     89  64  42 E7        29.84S HX  90
HONDO          PTCLDY    89  67  47 E9        29.83S HX  92
*UVALDE        CLEAR     88  65  46 SE7       29.84R HX  90
DEL RIO        CLEAR     91  65  41 SE12      29.79S HX  93
LAUGHLIN AFB   PTCLDY    91  66  43 SE14      29.80R HX  94
CARRIZO SPRGS  CLEAR     91  64  40 E9        29.79S HX  93
*EAGLE PASS    CLEAR     91  64  40 SE10      29.80R HX  93
$$

TXZ173-191>194-202-209-217>225-228-290200-
CENTRAL AND SOUTH CENTRAL TEXAS

CITY           SKY/WX    TMP DP  RH WIND       PRES   REMARKS
GEORGETOWN     PTCLDY    90  66  45 E8        29.85S HX  92
AUSTIN/BERGSTM PTCLDY    89  70  53 SE8       29.83R HX  94
AUSTIN/MABRY   CLEAR     88  68  51 E7        29.84S HX  91
*AUSTIN/EXEC     N/A     86  72  62 E8        29.85R HX  92
*LAGO VISTA    CLEAR     86  68  53 E5        29.87S
SAN MARCOS     CLEAR     86  72  62 SE8       29.84S HX  92
NEW BRAUNFELS  CLEAR     89  69  51 SE10      29.82S HX  93
RANDOLPH AFB   CLEAR     88  68  50 SE7       29.83S HX  91
PT SAN ANTONIO CLEAR     88  69  52 SE10      29.81F HX  92
SAN ANTONIO    PTCLDY    88  66  48 E8        29.83F HX  90
STINSON FIELD  CLEAR     90  68  48 SE8       29.81S HX  94
*LA GRANGE     MOCLDY    88  74  64 SE5       29.82S HX  97
*GIDDINGS      CLEAR     87  69  55 SE6       29.85S HX  91
*GONZALES      MOCLDY    87  74  64 SE10      29.82S HX  95
$$

TXZ163>164-176>182-195>201-210>213-226-227-235-290200-
SOUTHEAST TEXAS

CITY           SKY/WX    TMP DP  RH WIND       PRES   REMARKS
COLLEGE STN    PTCLDY    87  71  58 E8        29.84S HX  93
*BRYAN         CLEAR     85  70  61 E6        29.85S
*CALDWELL      NOT AVBL
*CROCKETT      CLEAR     84  72  65 SE3       29.89S
*BRENHAM       PTCLDY    85  73  66 E5        29.84S HX  91
HUNTSVILLE     CLEAR     85  69  58 E3        29.86S
CONROE         PTCLDY    82  72  71 E7        29.86S
HOUSTON BUSH   PTCLDY    82  73  74 E16       29.85R
HOUSTON HOBBY  PTCLDY    83  73  72 E10       29.84S
*HOUSTON SW AP CLOUDY    81  73  77 SE7       29.85S
PEARLAND       PTCLDY    86  73  65 SE8       29.86R HX  93
HOUSTON HOOKS  PTCLDY    84  73  69 E13G22    29.85R HX  90
ELLINGTON FLD  MOCLDY    82  75  78 E8        29.87R
SUGAR LAND     MOCLDY    86  73  65 E10       29.83S HX  93
*HOUSTON EXEC  MOCLDY    84  73  70 E9        29.85S HX  91
*CLEVELAND MUN PTCLDY    81  73  77 SE3       29.88R
*WHARTON       CLEAR     84  70  62 E6        29.84R
*COLUMBUS      FAIR      85  72  66 SE5       29.84S HX  90
*EAGLE LAKE    CLEAR     85  77  76 SE6       29.83S HX  95
$$

TXZ214>216-236>238-290200-
THE UPPER TEXAS COAST

CITY           SKY/WX    TMP DP  RH WIND       PRES   REMARKS
*ORANGE        MOCLDY    81  73  77 SE7       29.89S
PORT ARTHUR    MOCLDY    81  72  74 E13       29.87S
GALVESTON      PTCLDY    81  76  84 SE12      29.85S
ANGLETON       CLEAR     83  75  77 E8        29.84S HX  90
*BAY CITY      CLEAR     83  75  75 SE6       29.83S HX  90
PALACIOS       PTCLDY    79  74  84 SE8       29.83S
$$

TXZ229>234-239>247-290200-
TEXAS COASTAL BEND AND RIO GRANDE PLAINS

CITY           SKY/WX    TMP DP  RH WIND       PRES   REMARKS
VICTORIA       CLEAR     84  74  71 E9        29.82S HX  91
*BEEVILLE      CLEAR     87  76  69 E8G17     29.82R HX  97
ROCKPORT       PTCLDY    84  75  74 SE9       29.81S HX  92
*PORT ARANSAS  PTCLDY    83  73  72 SE6       29.82S
*PORT LAVACA   CLEAR     82  77  86 CALM      29.83S
*INGLESIDE     PTCLDY    85  75  72 MISG      29.82R HX  94
CORPUS CHRISTI PTCLDY    85  74  69 E12       29.81S HX  92
CORPUS NAS     MOCLDY    85  75  72 SE10      29.81R HX  93
*ROBSTOWN      PTCLDY    85  75  71 E7        29.81S HX  94
ALICE          CLEAR     86  73  65 E14       29.80R HX  93
KINGSVILLE NAS PTCLDY    85  76  74 E12       29.80S HX  94
COTULLA        CLEAR     92  65  40 E9        29.79S HX  94
*FAITH RANCH   CLEAR     93  64  38 E9G17     29.79S HX  95
LAREDO         CLEAR     93  68  43 E12       29.78S HX  97
$$

TXZ248>255-290200-
DEEP SOUTH TEXAS

CITY           SKY/WX    TMP DP  RH WIND       PRES   REMARKS
BROWNSVILLE    MOCLDY    82  78  88 SE12      29.81S HX  91
PORT ISABEL    MOCLDY    85  77  77 SE13      29.80S HX  95
*SOUTH PADRE   NOT AVBL
HARLINGEN      PTCLDY    85  77  77 SE14      29.79S HX  95
*HEBBRONVILLE  CLEAR     92  63  38 E8        29.81S HX  93
MCALLEN        CLEAR     90  74  59 E14       29.80R HX  99
*WESLACO       PTCLDY    86  74  68 SE10      29.79S HX  94
FALFURRIAS     PTCLDY    88  73  61 E12       29.79R HX  95
EDINBURG       MOCLDY    89  73  58 SE12      29.80R HX  96
*ZAPATA        MOCLDY    94  65  39 E7        29.77S HX  96
$$

TXZ213>215-236>238-242>244-246-247-251-254-255-290200-
CMAN STATIONS

STATION/POSITION TIME  TEMP    WIND        PRES    WAVE
                       AIR SEA DIR/SP/G            HT/PER
                 (UTC) (F)     (DEG/KT/KT) (MB)    (FT/S)
SABINE PASS      0030   80 86  100/ 12/ 15 1012.9
SEA RIM ST PARK  0000   80     100/ 12/ 14 1012.0
NORTH JETTY/GLS  0030      85  110/ 10/ 13 1010.5
EAGLE POINT      0030   81 85  130/ 11/ 13 1010.9
MORGANS POINT    0030   80 84  100/ 11/ 13 1010.8
MISSION/ARANSAS  0000          110/  9       N/A
PORT O`CONNOR    0030   83     100/  7/ 11 1009.6
PORT ARANSAS     0000   83 85  100/ 10/ 12 1009.7
MALAQUITE BEACH  0030   83 87  120/ 11/ 12 1008.8
BAFFIN BAY       2348   84 89              1009.5
PORT ISABEL      0030   83 85              1009.6
$$

GMZ080-GMZ150>470-290200-
OFFSHORE BUOY REPORTS

STATION/POSITION TIME  TEMP    WIND        PRES    WAVE
                       AIR SEA DIR/SP/G            HT/PER
                 (UTC) (F)     (DEG/KT/KT) (MB)    (FT/S)
20 E GALVESTON   2350   80 83  140/ 10/ 12 1010.8    4/ 7
90 E PT ARANSAS  2350   82 84  180/ 10/ 14 1009.8    4/ 6
35 NE PT MANSFLD 2350   83     170/ 12/ 14 1008.6    2/ 6
200 E PT ISABEL  2350   79 84  120/ 10/ 14 1012.2    4/ 7
$$



USA.gov is the U.S. government's official web portal to all federal, state and local government web resources and services.